Hill Air Force Base, UT

2:21 PM MDT on August 29, 2016 (GMT -0600)
Hill Air Force Base

Weather History for KHIF - October, 2012

Change the Weather History Date:

Saturday, October 20, 2012

  Actual Average Record
Temperature  
Mean Temperature 62 °F -  
Max Temperature 71 °F 56 °F 77 °F (2003)
Min Temperature 54 °F 38 °F 24 °F (1996)
Degree Days  
Heating Degree Days 3    
Growing Degree Days 12 (Base 50)    
Moisture  
Dew Point 29 °F    
Average Humidity 32    
Maximum Humidity 54    
Minimum Humidity 20    
Precipitation  
Precipitation 0.00 in - - ()
Sea Level Pressure  
Sea Level Pressure 29.62 in    
Wind  
Wind Speed 7 mph (SSE)    
Max Wind Speed 14 mph    
Max Gust Speed -    
Visibility 10 miles    
Events      
Averages and records for this station are not official NWS values.
T = Trace of Precipitation, MM = Missing Value Source: NWS Daily Summary

Daily Weather History Graph

Daily Weather History Graph

Search for Another Location

Airport or City:

Trip Planner

Search our weather history database for the weather conditions in past years. The results will help you decide how hot, cold, wet, or windy it might be!

Date:

Astronomy

Oct. 20, 2012 Rise Set
Actual Time 7:45 AM MDT 6:38 PM MDT
Civil Twilight 7:17 AM MDT 7:06 PM MDT
Nautical Twilight 6:45 AM MDT 7:38 PM MDT
Astronomical Twilight 6:13 AM MDT 8:10 PM MDT
Moon 1:26 PM MDT (10/20) 11:27 PM MDT (10/20)
Length of Visible Light 11h 49m
Length of Day
10h 53m
Waxing Crescent, 35% of the Moon is Illuminated
Oct 20
Waxing Crescent
Oct 21
First Quarter
Oct 29
Full
Nov 6
Last Quarter
Nov 13
New

Hourly Weather History & Observations

Time (MDT) Temp. Dew Point Humidity Pressure Visibility Wind Dir Wind Speed Gust Speed Precip Events Conditions
12:55 AM 56.3 °F 25.5 °F 31% 29.74 in 10.0 mi ESE 9.2 mph - N/A   Overcast
1:55 AM 56.5 °F 25.7 °F 31% 29.70 in 10.0 mi SE 6.9 mph - N/A   Overcast
2:55 AM 55.2 °F 26.8 °F 34% 29.70 in 10.0 mi ESE 5.8 mph - N/A   Overcast
3:55 AM 55.8 °F 27.3 °F 34% 29.68 in 10.0 mi ESE 8.1 mph - N/A   Overcast
4:55 AM 55.6 °F 27.9 °F 35% 29.69 in 10.0 mi ESE 5.8 mph - N/A   Overcast
5:55 AM 55.8 °F 26.8 °F 33% 29.67 in 10.0 mi East 6.9 mph - N/A   Overcast
6:55 AM 54.5 °F 27.0 °F 35% 29.69 in 10.0 mi ESE 8.1 mph - N/A   Overcast
7:55 AM 54.5 °F 26.2 °F 34% 29.68 in 10.0 mi SE 8.1 mph - N/A   Overcast
8:55 AM 60.3 °F 27.0 °F 28% 29.66 in 10.0 mi South 13.8 mph - N/A   Overcast
9:55 AM 60.3 °F 28.2 °F 30% 29.69 in 10.0 mi South 9.2 mph - N/A   Overcast
10:55 AM 64.8 °F 28.8 °F 26% 29.64 in 10.0 mi SSE 12.7 mph - N/A   Mostly Cloudy
11:55 AM 67.6 °F 27.9 °F 23% 29.61 in 10.0 mi South 5.8 mph - N/A   Overcast
12:55 PM 67.6 °F 27.3 °F 22% 29.59 in 10.0 mi WSW 3.5 mph - N/A   Overcast
1:55 PM 69.3 °F 28.2 °F 22% 29.56 in 10.0 mi West 5.8 mph - N/A   Partly Cloudy
2:55 PM 70.5 °F 26.8 °F 20% 29.53 in 10.0 mi WSW 5.8 mph - N/A   Clear
7:55 PM 64.4 °F 26.8 °F 24% 29.51 in 10.0 mi Calm Calm - N/A   Overcast
8:55 PM 66.2 °F 26.6 °F 23% 29.48 in 10.0 mi Calm Calm - N/A   Overcast
9:55 PM 58.6 °F 36.7 °F 44% 29.54 in 10.0 mi NNW 10.4 mph - N/A   Overcast
10:55 PM 57.4 °F 37.9 °F 48% 29.53 in 10.0 mi NW 5.8 mph - N/A   Overcast
11:55 PM 55.6 °F 39.0 °F 54% 29.53 in 10.0 mi WNW 6.9 mph - N/A   Overcast